Retour au catalogue

STARLINK-31770

ActifCommunicationsVLEO
NORAD 59601·PAYLOAD·🇺🇸 United States

Lancé Apr 28, 2024 depuis Cape Canaveral Space Force Station

Loading…

Prochains Passages (prochaines 24 heures)

TLE

FraisSource: CelesTrak SupGP

Époque: Sep 15, 2026, 03:07 UTC

1 59601C 24080A   26258.13034722 -.00026590  00000+0 -96288-3 0  2587
2 59601  43.0044  48.3339 0001737 270.0075  24.6022 15.27598461    12

Suivez STARLINK-31770 en temps réel avec AllMySat

Download on the App Store